Location: Unspecified
(47.4992°N, 121.7766°W)
Time: 02:27:03
(UTC-08:00)

Cosmos 2058 - Pass Details

Date: 04 February 2021
Orbit: 561 x 584 km, 82.5° (Epoch: 24 February)

Event Time Altitude Azimuth Distance (km) Brightness Sun altitude
Rises 18:22:34 0° 172° (S) 2,779 6.5 -11.9°
Reaches altitude 10° 18:24:48 10° 166° (SSE) 1,881 5.5 -12.3°
Maximum altitude 18:28:46 45° 94° (E) 785 3.2 -12.9°
Drops below altitude 10° 18:32:44 10° 21° (NNE) 1,883 5.3 -13.6°
Sets 18:34:58 0° 15° (NNE) 2,781 6.2 -14.0°
